Find Starlink 34599

NORAD ID: 64919 Int'l Des: 2025-157 Owner: SPXS Country: US Constellation: starlink operational
LEOCIRCULAR

リアルタイム位置

3D地球を読み込み中...

Starlink 34599について

説明を読み込み中...

次回通過

Passes for default location (London). Set your location on the main map for personalized predictions.

高度履歴

Loading altitude history...

軌道要素

1 64919U 25157R 26104.93224397 .00009039 00000-0 31691-3 0 9995
2 64919 53.1598 177.2437 0000613 82.2796 277.8274 15.30202412 41672
Epoch: Apr 14, 2026 • Age: 13 hours

現在のステータス

高度 481.3 km
速度 7.63 km/s
衛星直下点 53.10°N, 101.72°W
打ち上げ日 Jul 26, 2025
運用期間 0.7 years
タイプ internet

技術仕様

分類 Payload
質量 575.00 kg
乾燥質量 530.00 kg
総質量 575.00 kg
長さ 0.30 m
直径 4.10 m
スパン 29.00 m
形状 Box + pan
製造者 SPXS
バスタイプ Starlink V2MO
フェーズステータス In Orbit
所有者/国 SPXS/US

Most Searched